Location: Alafon
(8.4500°N, 4.2333°E)
Time: 16:22:16
(UTC+00:00)

SR - Pass Details

Date: 01 August 2021
Orbit: 581 x 874 km, 66.7° (Epoch: 18 September)

Event Time Altitude Azimuth Distance (km) Brightness Sun altitude
Rises 03:34:34 0° 175° (S) 3,415 - -28.5°
Reaches altitude 10° 03:37:26 10° 162° (SSE) 2,501 - -27.8°
Exits shadow 03:37:32 10° 161° (SSE) 2,474 ? -27.8°
Maximum altitude 03:42:08 25° 108° (ESE) 1,680 ? -26.8°
Drops below altitude 10° 03:46:49 10° 55° (NE) 2,507 ? -25.8°
Sets 03:49:41 0° 42° (NE) 3,426 ? -25.1°
